JES3504 SAZN-SASA

Flight info

Callsign JES3504
Flight time 2h 2m
Altitude 38000
Route KOTOG3C KOTOG DCT ARVET UW37 ESITO/N0437F370 UZ108 TUC UT675 ILPAR DCT
Aircraft A320/M-SDE3FGHIRWY/LB1

Departure

Time 2026-04-29 14:43
Airport Presidente Perón International Airport (SAZN)

Arrival

Time 2026-04-29 16:45
Airport Martín Miguel de Güemes International Airport (SASA)
Time Latitude Longitude Altitude Speed Heading
2026-04-29 14:01 -38.95158 -68.14158 904 ft 0 kts 180°
2026-04-29 14:35 -38.95134 -68.14158 905 ft 4 kts 179°
2026-04-29 14:36 -38.95108 -68.14161 904 ft 4 kts 157°
2026-04-29 14:36 -38.95094 -68.14177 904 ft 2 kts 90°
2026-04-29 14:36 -38.95094 -68.14208 904 ft 2 kts 90°
2026-04-29 14:36 -38.95094 -68.14209 904 ft 0 kts 90°
2026-04-29 14:40 -38.95094 -68.14207 904 ft 1 kts 90°
2026-04-29 14:41 -38.95094 -68.14172 904 ft 6 kts 90°
2026-04-29 14:41 -38.95077 -68.14121 904 ft 8 kts 38°
2026-04-29 14:41 -38.95020 -68.14113 904 ft 9 kts 360°
2026-04-29 14:41 -38.94955 -68.14114 910 ft 9 kts 359°
2026-04-29 14:42 -38.94914 -68.14171 905 ft 11 kts 294°
2026-04-29 14:42 -38.94903 -68.14298 905 ft 17 kts 270°
2026-04-29 14:42 -38.94903 -68.14600 903 ft 64 kts 270°
2026-04-29 14:42 -38.94900 -68.15421 904 ft 117 kts 270°
2026-04-29 14:43 -38.94906 -68.16616 1124 ft 140 kts 268°
2026-04-29 14:43 -38.94903 -68.17866 1772 ft 139 kts 266°
2026-04-29 14:43 -38.94901 -68.19093 2470 ft 137 kts 266°
2026-04-29 14:43 -38.94899 -68.20352 2935 ft 149 kts 265°
2026-04-29 14:44 -38.94900 -68.21783 3214 ft 172 kts 264°
2026-04-29 14:44 -38.94900 -68.23429 3640 ft 192 kts 264°
2026-04-29 14:44 -38.94891 -68.25166 4450 ft 197 kts 265°
2026-04-29 14:44 -38.94880 -68.26918 5276 ft 201 kts 264°
2026-04-29 14:45 -38.94870 -68.28737 6059 ft 207 kts 265°
2026-04-29 14:45 -38.94598 -68.30646 6520 ft 239 kts 291°
2026-04-29 14:45 -38.93312 -68.32245 6990 ft 280 kts 327°
2026-04-29 14:45 -38.91338 -68.32705 7687 ft 302 kts
2026-04-29 14:46 -38.89256 -68.32059 8439 ft 313 kts 17°
2026-04-29 14:46 -38.87223 -68.31016 9276 ft 315 kts 19°
2026-04-29 14:46 -38.85184 -68.29934 10098 ft 319 kts 19°
2026-04-29 14:46 -38.83074 -68.28814 10434 ft 339 kts 19°
2026-04-29 14:47 -38.80768 -68.27836 10670 ft 357 kts 12°
2026-04-29 14:47 -38.78322 -68.27097 11236 ft 364 kts
2026-04-29 14:47 -38.75852 -68.26487 11896 ft 367 kts
2026-04-29 14:47 -38.73329 -68.25899 12564 ft 372 kts
2026-04-29 14:48 -38.70770 -68.25298 13239 ft 375 kts
2026-04-29 14:48 -38.68193 -68.24662 13911 ft 379 kts
2026-04-29 14:48 -38.65598 -68.23982 14523 ft 382 kts
2026-04-29 14:48 -38.62982 -68.23272 15119 ft 385 kts
2026-04-29 14:49 -38.60347 -68.22545 15699 ft 389 kts
2026-04-29 14:49 -38.57691 -68.21808 16296 ft 392 kts
2026-04-29 14:49 -38.55012 -68.21068 16887 ft 395 kts
2026-04-29 14:49 -38.52312 -68.20329 17483 ft 399 kts
2026-04-29 14:50 -38.49584 -68.19587 18060 ft 402 kts
2026-04-29 14:50 -38.46836 -68.18850 18592 ft 405 kts
2026-04-29 14:50 -38.44087 -68.18469 19089 ft 402 kts 355°
2026-04-29 14:50 -38.41300 -68.18569 19612 ft 402 kts 351°
2026-04-29 14:51 -38.38500 -68.18740 20140 ft 404 kts 350°
2026-04-29 14:51 -38.35682 -68.18908 20650 ft 407 kts 350°
2026-04-29 14:51 -38.32845 -68.19080 21130 ft 410 kts 350°
2026-04-29 14:51 -38.29988 -68.19248 21607 ft 413 kts 350°
2026-04-29 14:52 -38.27105 -68.19414 22085 ft 416 kts 350°
2026-04-29 14:52 -38.24202 -68.19577 22560 ft 419 kts 349°
2026-04-29 14:52 -38.21281 -68.19744 23042 ft 422 kts 349°
2026-04-29 14:52 -38.18335 -68.19914 23502 ft 425 kts 349°
2026-04-29 14:53 -38.15371 -68.20085 23872 ft 428 kts 349°
2026-04-29 14:53 -38.12381 -68.20256 24236 ft 432 kts 349°
2026-04-29 14:53 -38.09363 -68.20429 24582 ft 436 kts 349°
2026-04-29 14:53 -38.06324 -68.20602 24913 ft 439 kts 349°
2026-04-29 14:54 -38.03295 -68.20773 25240 ft 443 kts 348°
2026-04-29 14:54 -38.00198 -68.20948 25573 ft 447 kts 348°
2026-04-29 14:54 -37.97080 -68.21127 25907 ft 451 kts 348°
2026-04-29 14:54 -37.93930 -68.21307 26195 ft 455 kts 348°
2026-04-29 14:55 -37.90752 -68.21486 26495 ft 459 kts 348°
2026-04-29 14:55 -37.87545 -68.21667 26811 ft 463 kts 348°
2026-04-29 14:55 -37.84311 -68.21848 27134 ft 467 kts 348°
2026-04-29 14:55 -37.81054 -68.22032 27452 ft 470 kts 348°
2026-04-29 14:56 -37.77769 -68.22217 27770 ft 474 kts 348°
2026-04-29 14:56 -37.74462 -68.22402 28089 ft 478 kts 348°
2026-04-29 14:56 -37.71120 -68.22588 28358 ft 482 kts 348°
2026-04-29 14:56 -37.67794 -68.22778 28658 ft 487 kts 348°
2026-04-29 14:57 -37.64399 -68.22971 28973 ft 490 kts 348°
2026-04-29 14:57 -37.60978 -68.23164 29276 ft 493 kts 348°
2026-04-29 14:57 -37.57533 -68.23359 29564 ft 498 kts 347°
2026-04-29 14:57 -37.54063 -68.23555 29870 ft 501 kts 347°
2026-04-29 14:58 -37.50569 -68.23753 30132 ft 504 kts 347°
2026-04-29 14:58 -37.47071 -68.23950 30526 ft 503 kts 347°
2026-04-29 14:58 -37.43569 -68.24142 30933 ft 503 kts 347°
2026-04-29 14:58 -37.40073 -68.24334 31338 ft 502 kts 347°
2026-04-29 14:59 -37.36585 -68.24530 31737 ft 502 kts 347°
2026-04-29 14:59 -37.33095 -68.24724 32152 ft 502 kts 347°
2026-04-29 14:59 -37.29604 -68.24911 32581 ft 501 kts 346°
2026-04-29 14:59 -37.26124 -68.25097 32969 ft 500 kts 346°
2026-04-29 15:00 -37.22646 -68.25284 33408 ft 499 kts 346°
2026-04-29 15:00 -37.19229 -68.25473 33834 ft 499 kts 346°
2026-04-29 15:00 -37.15764 -68.25664 34219 ft 498 kts 346°
2026-04-29 15:00 -37.12309 -68.25855 34577 ft 497 kts 346°
2026-04-29 15:01 -37.08863 -68.26050 34935 ft 496 kts 346°
2026-04-29 15:01 -37.05422 -68.26241 35268 ft 494 kts 346°
2026-04-29 15:01 -37.01999 -68.26433 35639 ft 492 kts 346°
2026-04-29 15:01 -36.98588 -68.26626 35997 ft 490 kts 346°
2026-04-29 15:02 -36.95179 -68.26815 36335 ft 489 kts 346°
2026-04-29 15:02 -36.91783 -68.27002 36661 ft 489 kts 346°
2026-04-29 15:02 -36.88388 -68.27191 36979 ft 488 kts 346°
2026-04-29 15:02 -36.85048 -68.27376 37285 ft 487 kts 346°
2026-04-29 15:03 -36.81672 -68.27565 37590 ft 486 kts 345°
2026-04-29 15:03 -36.78294 -68.27751 37882 ft 486 kts 346°
2026-04-29 15:03 -36.74913 -68.27935 37980 ft 488 kts 345°
2026-04-29 15:04 -36.68090 -68.28321 37981 ft 492 kts 346°
2026-04-29 15:04 -36.61248 -68.28694 37958 ft 492 kts 346°
2026-04-29 15:05 -36.54400 -68.29054 37988 ft 492 kts 346°
2026-04-29 15:05 -36.47609 -68.29423 37990 ft 492 kts 346°
2026-04-29 15:06 -36.40767 -68.29808 37993 ft 492 kts 346°
2026-04-29 15:06 -36.33915 -68.30182 37971 ft 493 kts 346°
2026-04-29 15:07 -36.27050 -68.30552 37983 ft 494 kts 346°
2026-04-29 15:07 -36.20170 -68.30921 37997 ft 495 kts 346°
2026-04-29 15:08 -36.13334 -68.31289 37998 ft 495 kts 346°
2026-04-29 15:08 -36.06452 -68.31660 38008 ft 495 kts 346°
2026-04-29 15:09 -35.99561 -68.32029 38011 ft 496 kts 346°
2026-04-29 15:09 -35.92679 -68.32407 37984 ft 495 kts 346°
2026-04-29 15:10 -35.85788 -68.32790 38003 ft 497 kts 346°
2026-04-29 15:10 -35.78926 -68.33154 38032 ft 497 kts 346°
2026-04-29 15:11 -35.72022 -68.33508 38039 ft 496 kts 346°
2026-04-29 15:11 -35.65123 -68.33874 38014 ft 496 kts 346°
2026-04-29 15:12 -35.58225 -68.34245 38023 ft 496 kts 346°
2026-04-29 15:12 -35.51370 -68.34617 38038 ft 496 kts 346°
2026-04-29 15:13 -35.44469 -68.34986 38005 ft 496 kts 347°
2026-04-29 15:13 -35.37576 -68.35351 38033 ft 496 kts 347°
2026-04-29 15:14 -35.30695 -68.35704 38035 ft 495 kts 347°
2026-04-29 15:14 -35.23803 -68.36079 37983 ft 496 kts 346°
2026-04-29 15:15 -35.16966 -68.36440 38004 ft 495 kts 347°
2026-04-29 15:15 -35.10078 -68.36805 38018 ft 496 kts 347°
2026-04-29 15:16 -35.03183 -68.37166 38025 ft 496 kts 347°
2026-04-29 15:16 -34.96286 -68.37524 38004 ft 495 kts 347°
2026-04-29 15:17 -34.89453 -68.37881 38032 ft 495 kts 347°
2026-04-29 15:17 -34.82573 -68.38238 38048 ft 495 kts 347°
2026-04-29 15:18 -34.75696 -68.38599 38009 ft 494 kts 347°
2026-04-29 15:18 -34.68829 -68.38962 38061 ft 493 kts 347°
2026-04-29 15:19 -34.62057 -68.39477 38076 ft 483 kts 340°
2026-04-29 15:19 -34.58823 -68.40341 38086 ft 470 kts 331°
2026-04-29 15:19 -34.55810 -68.41715 38083 ft 455 kts 322°
2026-04-29 15:20 -34.50379 -68.45387 38008 ft 445 kts 317°
2026-04-29 15:20 -34.45000 -68.49120 38029 ft 446 kts 318°
2026-04-29 15:21 -34.39634 -68.52800 38024 ft 446 kts 318°
2026-04-29 15:21 -34.34232 -68.56494 38051 ft 446 kts 317°
2026-04-29 15:22 -34.28851 -68.60188 38026 ft 444 kts 318°
2026-04-29 15:22 -34.23482 -68.63876 38039 ft 444 kts 318°
2026-04-29 15:23 -34.18113 -68.67549 38046 ft 443 kts 318°
2026-04-29 15:23 -34.12785 -68.71186 38047 ft 443 kts 318°
2026-04-29 15:24 -34.07418 -68.74848 38022 ft 443 kts 319°
2026-04-29 15:24 -34.02054 -68.78511 38038 ft 443 kts 319°
2026-04-29 15:25 -33.96690 -68.82159 38051 ft 442 kts 319°
2026-04-29 15:25 -33.93886 -68.83790 38047 ft 456 kts 328°
2026-04-29 15:25 -33.90814 -68.84800 38049 ft 473 kts 340°
2026-04-29 15:25 -33.87474 -68.85075 37997 ft 491 kts 353°
2026-04-29 15:26 -33.84046 -68.84493 38009 ft 506 kts
2026-04-29 15:26 -33.77293 -68.81930 38022 ft 510 kts 10°
2026-04-29 15:27 -33.70527 -68.79355 38032 ft 510 kts 10°
2026-04-29 15:27 -33.63753 -68.76816 38038 ft 511 kts 10°
2026-04-29 15:28 -33.57017 -68.74287 38026 ft 510 kts 10°
2026-04-29 15:28 -33.50242 -68.71729 38045 ft 510 kts 10°
2026-04-29 15:29 -33.43470 -68.69171 38049 ft 511 kts 10°
2026-04-29 15:30 -33.29951 -68.64094 38039 ft 508 kts 10°
2026-04-29 15:30 -33.23260 -68.61587 38057 ft 507 kts 10°
2026-04-29 15:31 -33.16537 -68.59073 38069 ft 506 kts 10°
2026-04-29 15:31 -33.09809 -68.56563 38071 ft 506 kts 10°
2026-04-29 15:32 -33.03091 -68.54063 38067 ft 505 kts 10°
2026-04-29 15:32 -32.96433 -68.51592 38066 ft 504 kts 11°
2026-04-29 15:33 -32.89745 -68.49105 38075 ft 503 kts 11°
2026-04-29 15:33 -32.83068 -68.46621 38077 ft 503 kts 11°
2026-04-29 15:34 -32.76390 -68.44151 38088 ft 503 kts 11°
2026-04-29 15:34 -32.69720 -68.41695 38087 ft 501 kts 11°
2026-04-29 15:35 -32.63107 -68.39264 38084 ft 501 kts 11°
2026-04-29 15:35 -32.56456 -68.36822 38083 ft 500 kts 11°
2026-04-29 15:36 -32.49818 -68.34375 38074 ft 499 kts 11°
2026-04-29 15:36 -32.43198 -68.31941 38087 ft 498 kts 10°
2026-04-29 15:37 -32.36631 -68.29535 38090 ft 497 kts 10°
2026-04-29 15:37 -32.30025 -68.27115 38090 ft 497 kts 10°
2026-04-29 15:38 -32.23420 -68.24702 38074 ft 496 kts 10°
2026-04-29 15:38 -32.16825 -68.22288 38089 ft 496 kts 10°
2026-04-29 15:39 -32.10234 -68.19877 38090 ft 496 kts 10°
2026-04-29 15:39 -32.03691 -68.17504 38085 ft 495 kts 11°
2026-04-29 15:40 -31.97111 -68.15124 38087 ft 494 kts 11°
2026-04-29 15:40 -31.90541 -68.12734 38084 ft 494 kts 11°
2026-04-29 15:41 -31.83972 -68.10350 38081 ft 494 kts 11°
2026-04-29 15:41 -31.77440 -68.07981 38083 ft 494 kts 11°
2026-04-29 15:42 -31.70867 -68.05613 38068 ft 493 kts 10°
2026-04-29 15:42 -31.64317 -68.03257 38084 ft 492 kts 10°
2026-04-29 15:43 -31.57784 -68.00904 38092 ft 491 kts 10°
2026-04-29 15:43 -31.51254 -67.98557 38088 ft 490 kts 10°
2026-04-29 15:44 -31.44778 -67.96227 38054 ft 489 kts 11°
2026-04-29 15:44 -31.38277 -67.93886 38086 ft 488 kts 10°
2026-04-29 15:45 -31.31787 -67.91566 38094 ft 487 kts 10°
2026-04-29 15:45 -31.25303 -67.89256 38097 ft 487 kts 10°
2026-04-29 15:46 -31.18886 -67.86958 38085 ft 484 kts 10°
2026-04-29 15:46 -31.12430 -67.84662 38079 ft 485 kts 10°
2026-04-29 15:47 -31.05972 -67.82364 38086 ft 485 kts 10°
2026-04-29 15:47 -30.99525 -67.80069 38086 ft 484 kts 10°
2026-04-29 15:48 -30.93130 -67.77804 38074 ft 484 kts 10°
2026-04-29 15:48 -30.86688 -67.75512 38068 ft 484 kts 11°
2026-04-29 15:49 -30.80253 -67.73224 38078 ft 484 kts 11°
2026-04-29 15:49 -30.73798 -67.70940 38082 ft 484 kts 11°
2026-04-29 15:50 -30.67395 -67.68685 38083 ft 484 kts 11°
2026-04-29 15:50 -30.60948 -67.66420 38054 ft 484 kts 11°
2026-04-29 15:51 -30.54516 -67.64161 38076 ft 483 kts 11°
2026-04-29 15:51 -30.48409 -67.60753 38078 ft 494 kts 28°
2026-04-29 15:52 -30.42685 -67.56465 38077 ft 493 kts 28°
2026-04-29 15:52 -30.36915 -67.52179 38072 ft 492 kts 27°
2026-04-29 15:53 -30.31149 -67.47923 38062 ft 490 kts 27°
2026-04-29 15:53 -30.25409 -67.43692 38071 ft 488 kts 27°
2026-04-29 15:54 -30.19730 -67.39504 38069 ft 487 kts 27°
2026-04-29 15:54 -30.14024 -67.35286 38076 ft 487 kts 27°
2026-04-29 15:55 -30.08311 -67.31070 38076 ft 487 kts 27°
2026-04-29 15:55 -30.02601 -67.26860 38053 ft 486 kts 27°
2026-04-29 15:56 -29.96945 -67.22698 38079 ft 484 kts 27°
2026-04-29 15:56 -29.91264 -67.18540 38085 ft 483 kts 27°
2026-04-29 15:57 -29.85590 -67.14383 38091 ft 483 kts 27°
2026-04-29 15:57 -29.79918 -67.10235 38088 ft 483 kts 27°
2026-04-29 15:58 -29.74246 -67.06090 38080 ft 483 kts 27°
2026-04-29 15:58 -29.68621 -67.01987 38068 ft 481 kts 27°
2026-04-29 15:59 -29.62948 -66.97854 38078 ft 484 kts 27°
2026-04-29 15:59 -29.57265 -66.93714 38090 ft 483 kts 27°
2026-04-29 16:00 -29.51584 -66.89587 38142 ft 483 kts 27°
2026-04-29 16:00 -29.45900 -66.85465 38158 ft 484 kts 27°
2026-04-29 16:01 -29.40247 -66.81370 38135 ft 484 kts 27°
2026-04-29 16:01 -29.34652 -66.77082 38149 ft 485 kts 31°
2026-04-29 16:02 -29.29245 -66.72435 38158 ft 486 kts 33°
2026-04-29 16:02 -29.23865 -66.67741 38138 ft 486 kts 32°
2026-04-29 16:03 -29.18472 -66.63182 38127 ft 485 kts 32°
2026-04-29 16:03 -29.13005 -66.58656 38125 ft 485 kts 31°
2026-04-29 16:04 -29.07550 -66.54133 38106 ft 485 kts 31°
2026-04-29 16:04 -29.02106 -66.49586 38099 ft 485 kts 32°
2026-04-29 16:05 -28.96662 -66.45042 38098 ft 484 kts 31°
2026-04-29 16:05 -28.91254 -66.40535 38099 ft 485 kts 31°
2026-04-29 16:06 -28.85800 -66.36009 38102 ft 485 kts 31°
2026-04-29 16:06 -28.80339 -66.31483 38102 ft 485 kts 31°
2026-04-29 16:07 -28.74896 -66.26959 38085 ft 484 kts 31°
2026-04-29 16:07 -28.69506 -66.22491 38099 ft 481 kts 31°
2026-04-29 16:08 -28.64086 -66.18024 38086 ft 480 kts 31°
2026-04-29 16:08 -28.59591 -66.14316 38086 ft 480 kts 31°
2026-04-29 16:09 -28.53273 -66.09099 38099 ft 480 kts 31°
2026-04-29 16:09 -28.47901 -66.04679 38090 ft 480 kts 31°
2026-04-29 16:10 -28.42493 -66.00235 38086 ft 478 kts 31°
2026-04-29 16:10 -28.38018 -65.96553 38090 ft 478 kts 31°
2026-04-29 16:11 -28.31729 -65.91382 38077 ft 476 kts 31°
2026-04-29 16:11 -28.27269 -65.87731 38068 ft 476 kts 31°
2026-04-29 16:12 -28.21899 -65.83343 38062 ft 475 kts 31°
2026-04-29 16:12 -28.15675 -65.78251 38062 ft 475 kts 31°
2026-04-29 16:13 -28.11227 -65.74618 38051 ft 474 kts 31°
2026-04-29 16:13 -28.05885 -65.70265 38043 ft 473 kts 31°
2026-04-29 16:14 -28.00542 -65.65921 38037 ft 472 kts 31°
2026-04-29 16:14 -27.95208 -65.61589 38041 ft 472 kts 31°
2026-04-29 16:15 -27.89911 -65.57295 38030 ft 472 kts 31°
2026-04-29 16:15 -27.84580 -65.52969 38028 ft 472 kts 31°
2026-04-29 16:16 -27.79250 -65.48638 38027 ft 471 kts 31°
2026-04-29 16:16 -27.73921 -65.44339 38039 ft 470 kts 29°
2026-04-29 16:17 -27.68141 -65.41267 38040 ft 458 kts 13°
2026-04-29 16:17 -27.62076 -65.39053 38031 ft 457 kts 13°
2026-04-29 16:18 -27.56027 -65.36833 38035 ft 457 kts 13°
2026-04-29 16:18 -27.49978 -65.34615 38017 ft 457 kts 13°
2026-04-29 16:19 -27.43926 -65.32400 38022 ft 457 kts 13°
2026-04-29 16:19 -27.37910 -65.30207 38029 ft 458 kts 13°
2026-04-29 16:20 -27.31864 -65.28007 38023 ft 457 kts 13°
2026-04-29 16:20 -27.25808 -65.25803 38033 ft 457 kts 13°
2026-04-29 16:21 -27.19763 -65.23605 38021 ft 456 kts 13°
2026-04-29 16:21 -27.13724 -65.21403 38036 ft 457 kts 13°
2026-04-29 16:22 -27.07721 -65.19220 38041 ft 456 kts 13°
2026-04-29 16:22 -27.01674 -65.17034 38046 ft 456 kts 13°
2026-04-29 16:23 -26.95629 -65.14853 38051 ft 456 kts 13°
2026-04-29 16:23 -26.89593 -65.12665 38040 ft 456 kts 14°
2026-04-29 16:24 -26.83538 -65.10934 38050 ft 448 kts
2026-04-29 16:24 -26.77352 -65.10760 38053 ft 444 kts 356°
2026-04-29 16:25 -26.71180 -65.10670 38035 ft 444 kts 356°
2026-04-29 16:25 -26.65008 -65.10565 37832 ft 443 kts 357°
2026-04-29 16:25 -26.61926 -65.10520 37561 ft 443 kts 357°
2026-04-29 16:26 -26.58891 -65.10478 37293 ft 443 kts 357°
2026-04-29 16:26 -26.55815 -65.10434 36868 ft 441 kts 357°
2026-04-29 16:26 -26.52738 -65.10394 36152 ft 445 kts 357°
2026-04-29 16:26 -26.49634 -65.10354 35415 ft 448 kts 357°
2026-04-29 16:27 -26.46493 -65.10314 34614 ft 453 kts 357°
2026-04-29 16:27 -26.43324 -65.10274 33765 ft 459 kts 357°
2026-04-29 16:27 -26.40133 -65.10229 33239 ft 455 kts 357°
2026-04-29 16:27 -26.36978 -65.10182 32681 ft 452 kts 358°
2026-04-29 16:28 -26.33849 -65.10133 32150 ft 449 kts 358°
2026-04-29 16:28 -26.30773 -65.10083 31615 ft 447 kts 358°
2026-04-29 16:28 -26.27674 -65.10039 31065 ft 445 kts 358°
2026-04-29 16:28 -26.24588 -65.09999 30523 ft 443 kts 358°
2026-04-29 16:29 -26.21513 -65.09960 29964 ft 441 kts 358°
2026-04-29 16:29 -26.18453 -65.09918 29385 ft 438 kts 358°
2026-04-29 16:29 -26.15417 -65.09875 28853 ft 435 kts 358°
2026-04-29 16:29 -26.12405 -65.09835 28324 ft 431 kts 358°
2026-04-29 16:30 -26.09416 -65.09795 27794 ft 428 kts 358°
2026-04-29 16:30 -26.06450 -65.09751 27291 ft 425 kts 358°
2026-04-29 16:30 -26.03552 -65.09709 26800 ft 421 kts 358°
2026-04-29 16:30 -26.00628 -65.09668 26317 ft 419 kts 358°
2026-04-29 16:31 -25.97720 -65.09626 25837 ft 416 kts 358°
2026-04-29 16:31 -25.94836 -65.09585 25386 ft 413 kts 358°
2026-04-29 16:31 -25.91967 -65.09546 24928 ft 411 kts 358°
2026-04-29 16:31 -25.89114 -65.09508 24475 ft 409 kts 358°
2026-04-29 16:32 -25.86270 -65.09472 24025 ft 408 kts 358°
2026-04-29 16:32 -25.83439 -65.09435 23553 ft 406 kts 358°
2026-04-29 16:32 -25.80624 -65.09398 23042 ft 403 kts 359°
2026-04-29 16:32 -25.77866 -65.09359 22580 ft 400 kts 359°
2026-04-29 16:33 -25.72356 -65.09334 21618 ft 392 kts 353°
2026-04-29 16:33 -25.69698 -65.09883 21123 ft 387 kts 340°
2026-04-29 16:33 -25.67234 -65.11021 20639 ft 381 kts 328°
2026-04-29 16:34 -25.64954 -65.12507 20134 ft 379 kts 327°
2026-04-29 16:34 -25.62689 -65.13991 19637 ft 377 kts 327°
2026-04-29 16:34 -25.60432 -65.15462 19135 ft 376 kts 327°
2026-04-29 16:34 -25.58178 -65.16928 18647 ft 375 kts 327°
2026-04-29 16:35 -25.55933 -65.18391 18133 ft 375 kts 327°
2026-04-29 16:35 -25.53723 -65.19834 17607 ft 372 kts 327°
2026-04-29 16:35 -25.51504 -65.21282 17104 ft 369 kts 327°
2026-04-29 16:35 -25.49301 -65.22721 16619 ft 367 kts 327°
2026-04-29 16:36 -25.47110 -65.24150 16132 ft 363 kts 327°
2026-04-29 16:36 -25.44936 -65.25568 15629 ft 362 kts 328°
2026-04-29 16:36 -25.42775 -65.26975 15129 ft 360 kts 328°
2026-04-29 16:36 -25.40623 -65.28373 14636 ft 357 kts 328°
2026-04-29 16:37 -25.38496 -65.29753 14143 ft 353 kts 328°
2026-04-29 16:37 -25.36376 -65.31136 13638 ft 353 kts 328°
2026-04-29 16:37 -25.34298 -65.32471 13128 ft 347 kts 328°
2026-04-29 16:37 -25.32895 -65.33376 12804 ft 347 kts 328°
2026-04-29 16:38 -25.30160 -65.35165 12192 ft 344 kts 328°
2026-04-29 16:38 -25.28106 -65.36504 11694 ft 340 kts 328°
2026-04-29 16:38 -25.26069 -65.37822 11211 ft 340 kts 329°
2026-04-29 16:38 -25.24026 -65.39137 10789 ft 339 kts 329°
2026-04-29 16:39 -25.22033 -65.40425 10662 ft 324 kts 329°
2026-04-29 16:39 -25.20125 -65.41665 10557 ft 312 kts 329°
2026-04-29 16:39 -25.18283 -65.42861 10435 ft 303 kts 329°
2026-04-29 16:39 -25.16502 -65.44010 10335 ft 296 kts 329°
2026-04-29 16:40 -25.14745 -65.45146 10232 ft 287 kts 329°
2026-04-29 16:40 -25.13043 -65.46249 10132 ft 280 kts 330°
2026-04-29 16:40 -25.11384 -65.47325 10007 ft 274 kts 329°
2026-04-29 16:40 -25.09759 -65.48391 9795 ft 270 kts 329°
2026-04-29 16:41 -25.08150 -65.49448 9462 ft 270 kts 329°
2026-04-29 16:41 -25.06492 -65.50536 8739 ft 282 kts 329°
2026-04-29 16:41 -25.04765 -65.51606 8018 ft 288 kts 338°
2026-04-29 16:41 -25.02826 -65.52150 7303 ft 288 kts 356°
2026-04-29 16:42 -25.00880 -65.51977 6816 ft 278 kts 12°
2026-04-29 16:42 -24.99048 -65.51572 6463 ft 264 kts 12°
2026-04-29 16:42 -24.97283 -65.51187 6118 ft 252 kts 12°
2026-04-29 16:42 -24.95612 -65.50820 5799 ft 237 kts 12°
2026-04-29 16:43 -24.94049 -65.50477 5514 ft 218 kts 12°
2026-04-29 16:43 -24.92645 -65.50170 5258 ft 194 kts 12°
2026-04-29 16:43 -24.91403 -65.49897 5032 ft 171 kts 12°
2026-04-29 16:43 -24.90264 -65.49651 4783 ft 162 kts 12°
2026-04-29 16:44 -24.89188 -65.49419 4511 ft 156 kts 13°
2026-04-29 16:44 -24.88152 -65.49182 4239 ft 151 kts 13°
2026-04-29 16:44 -24.87135 -65.48955 4062 ft 151 kts 11°
2026-04-29 16:44 -24.86157 -65.48743 4018 ft 127 kts 11°
2026-04-29 16:45 -24.85453 -65.48592 4018 ft 78 kts 11°
2026-04-29 16:45 -24.85052 -65.48504 4018 ft 47 kts 11°
2026-04-29 16:45 -24.84822 -65.48450 4019 ft 31 kts 10°
2026-04-29 16:45 -24.84644 -65.48349 4017 ft 29 kts 46°
2026-04-29 16:46 -24.84596 -65.48289 4017 ft 3 kts 88°
2026-04-29 16:46 -24.84592 -65.48262 4017 ft 4 kts 82°
2026-04-29 16:46 -24.84582 -65.48223 4017 ft 6 kts 69°
2026-04-29 16:46 -24.84564 -65.48172 4017 ft 8 kts 69°
2026-04-29 16:47 -24.84543 -65.48107 4017 ft 10 kts 71°
2026-04-29 16:47 -24.84519 -65.48028 4017 ft 11 kts 72°
2026-04-29 16:47 -24.84500 -65.47959 4017 ft 7 kts 76°
2026-04-29 16:47 -24.84505 -65.47918 4017 ft 1 kts 104°
2026-04-29 16:48 -24.84502 -65.47913 4017 ft 2 kts 74°
2026-04-29 16:48 -24.84497 -65.47911 4017 ft 0 kts 28°
2026-04-29 16:48 -24.84484 -65.47905 4017 ft 3 kts 24°
2026-04-29 16:48 -24.84468 -65.47897 4017 ft 0 kts 22°